Regional Weather Roundup
Issued by NWS Newport/Morehead, NC

Current Version | Previous Version | Graphics & Text | Print | Product List | Glossary On
Versions: 1 2 3 4 5 6 7 8 9 10 11 12 13 14 15 16 17 18 19 20 21 22 23 24 25 26 27 28 29 30 31 32 33 34 35 36 37 38 39 40 41 42 43 44 45 46 47 48 49 50
578
ASUS42 KMHX 271913
RWRMHX
WEATHER ROUNDUP FOR EASTERN NORTH CAROLINA
NATIONAL WEATHER SERVICE NEWPORT/MOREHEAD CITY NC
300 PM EDT WED JUL 27 2016

NOTE: "FAIR" INDICATES FEW OR NO CLOUDS BELOW 12,000 FEET
WITH NO SIGNIFICANT WEATHER AND/OR OBSTRUCTIONS TO VISIBILITY

NCZ015>017-031-032-045>047-102-103-272000-
NORTH COAST

CITY           SKY/WX    TMP DP  RH WIND       PRES   REMARKS
EDENTON        SUNNY     94  75  54 W5        29.93F HX 106
ELIZABETH CITY SUNNY     94  75  54 SW8       29.92F HX 105
KITTY HAWK     NOT AVBL
MANTEO           N/A     90  78  68 N6        29.93F HX 104

$$

NCZ045>047-081-094-103-104-272000-
CENTRAL COAST

CITY           SKY/WX    TMP DP  RH WIND       PRES   REMARKS
FRISCO         SUNNY     87  79  76 SW9       29.95F HX 101

$$

NCZ095-097-098-100-101-272000-
SOUTHERN COAST

CITY           SKY/WX    TMP DP  RH WIND       PRES   REMARKS
BEAUFORT       SUNNY     89  79  72 SW15      29.95F HX 104
CEDAR ISLAND   NOT AVBL
JACKSONVILLE   SUNNY     97  71  42 W8        29.94F HX 104
PINEY ISLAND   NOT AVBL
WILMINGTON     SUNNY     97  72  44 W10       29.95F HX 105


$$

NCZ011>013-027>030-043-044-078>080-089-090>093-098-272000-
COASTAL PLAIN

CITY           SKY/WX    TMP DP  RH WIND       PRES   REMARKS
AHOSKIE        SUNNY     89  77  67 CALM      29.93F HX 102
CLINTON        SUNNY     98  74  47 SW3       29.95F HX 109
ELIZABETHTOWN  SUNNY     98  72  43 SW9       29.96F HX 106
GOLDSBORO      MOSUNNY   97  76  51 W10       29.93F HX 110
GREENVILLE     SUNNY     97  79  56 CALM      29.95F HX 115
HAVELOCK       SUNNY     95  77  55 W12       29.95F HX 109
KENANSVILLE    NOT AVBL
KINSTON        MOSUNNY   95  75  52 CALM      29.94F HX 107
NEW BERN       SUNNY     95  77  55 SW7       29.95F HX 109
RICHLANDS      SUNNY     98  75  47 W7        29.95F HX 110
ROCKY MOUNT    MOSUNNY   94  78  60 VRB5      29.94F HX 110
WASHINGTON     MOSUNNY   95  79  60 W6        29.93F HX 112
WHITEVILLE     SUNNY     96  73  48 SW7       29.96F HX 105

$$

AMZ130-135-150-152-154-156-158-170-250-252-270-ANZ085-086-088-633-658-670-272000-
MARINE OBSERVATIONS

STATION/POSITION TIME  TEMP    WIND        PRES    WAVE   SWELL
                       AIR SEA DIR/SP/G            HT/PER HT/PER
                 (UTC) (F)     (DEG/KT/KT) (MB)    (FT/S) (FT/S)
CHESAPEAKE LIGHT NOT AVBL
64 E VA BEACH    1850   83 83  200/  4/  4 1013.5    3/ 6   2/ 6
DUCK             1800   83 69  130/  6/  6 1013.1
2 E DUCK         1811      79                N/A     1/ 5
OREGON INLET     1800   87 84   50/  5/  7 1013.9
13E OREGON INLT  1900      86                N/A     2/ 5   2/ 5
HATTERAS CG      1800   87 83  260/  6/  8 1014.3
DIAMOND BUOY     1850   84 85  250/ 10/ 12 1014.1    3/ 5   2/ 5
CAPE LOOKOUT     1900   88     220/  9/ 11 1014.0
BEAUFORT LAB     1800   89 82  210/  8/ 10 1014.3
30 SE NEW RVR IN 1808   85 85  230/ 12/ 17 1015.1
30 SE NEW RVR IN 1825      85                N/A     3/ 6
27 SE WRIGHTSVLE 1808   85 84  230/ 14/ 17 1015.4
5 SE WRIGHTSVLE  NOT AVBL
225 S CAPE HAT   1850   85 85  280/ 10/ 12 1017.3    4/ 6   3/ 6
41 SE CHARLESTON 1850   85 86  230/ 12/ 16 1016.3    3/ 5   2/ 8

$$




USA.gov is the U.S. government's official web portal to all federal, state and local government web resources and services.